| time (UTC) | temp C | wind direction | speed KPH | gust KPH | rain 1hr cm | rain 24hr cm | rain mn cm | humidity % | barometer mb |
| 20260906110032 | 20 | 281 | 20.9 | 33.8 | 0.00 | 0.05 | 0.00 | 64 | 1019.7 |
| 20260906104540 | 20 | 298 | 22.5 | 33.8 | 0.00 | 0.33 | 0.00 | 60 | 1019.8 |
| 20260906103041 | 18 | 300 | 14.5 | 29.0 | 0.00 | 0.33 | 0.00 | 66 | 1019.7 |
| 20260906101531 | 19 | 296 | 29.0 | 38.6 | 0.00 | 0.33 | 0.00 | 65 | 1019.7 |
| 20260906100027 | 18 | 236 | 20.9 | 29.0 | 0.00 | 0.33 | 0.00 | 65 | 1019.5 |
| 20260906094527 | 19 | 295 | 17.7 | 33.8 | 0.00 | 0.38 | 0.00 | 64 | 1019.4 |
| 20260906093029 | 18 | 312 | 20.9 | 35.4 | 0.00 | 0.38 | 0.00 | 63 | 1019.2 |
| 20260906091522 | 18 | 294 | 25.7 | 32.2 | 0.00 | 0.38 | 0.00 | 64 | 1019.2 |
| 20260906090016 | 17 | 274 | 16.1 | 30.6 | 0.00 | 0.38 | 0.00 | 66 | 1019.1 |
| 20260906084509 | 17 | 251 | 14.5 | 29.0 | 0.00 | 0.38 | 0.00 | 68 | 1019.0 |
| 20260906083006 | 17 | 289 | 20.9 | 32.2 | 0.00 | 0.38 | 0.00 | 68 | 1018.9 |
| 20260906081601 | 17 | 287 | 19.3 | 32.2 | 0.00 | 0.38 | 0.00 | 70 | 1018.8 |
| 20260906080059 | 17 | 292 | 24.1 | 33.8 | 0.00 | 0.38 | 0.00 | 71 | 1018.8 |
| 20260906074554 | 16 | 280 | 19.3 | 32.2 | 0.00 | 0.38 | 0.00 | 72 | 1018.6 |
| 20260906073051 | 16 | 242 | 16.1 | 30.6 | 0.00 | 0.38 | 0.00 | 73 | 1018.4 |
| 20260906071545 | 16 | 298 | 14.5 | 27.4 | 0.00 | 0.38 | 0.00 | 75 | 1018.4 |
| 20260906070041 | 15 | 284 | 11.3 | 25.7 | 0.00 | 0.38 | 0.00 | 76 | 1018.2 |
| 20260906064536 | 15 | 286 | 11.3 | 19.3 | 0.00 | 0.38 | 0.00 | 77 | 1018.0 |
| 20260906063037 | 15 | 266 | 11.3 | 20.9 | 0.00 | 0.38 | 0.00 | 79 | 1018.0 |
| 20260906061529 | 14 | 280 | 12.9 | 24.1 | 0.00 | 0.38 | 0.00 | 81 | 1017.7 |
| 20260906060025 | 13 | 278 | 14.5 | 19.3 | 0.00 | 0.38 | 0.00 | 82 | 1017.5 |
| 20260906054532 | 13 | 283 | 11.3 | 24.1 | 0.00 | 0.38 | 0.00 | 83 | 1017.5 |
| 20260906053018 | 13 | 273 | 11.3 | 24.1 | 0.00 | 0.38 | 0.00 | 84 | 1017.2 |
| 20260906051515 | 13 | 285 | 14.5 | 24.1 | 0.00 | 0.38 | 0.00 | 84 | 1017.1 |
| 20260906050014 | 12 | 292 | 12.9 | 20.9 | 0.00 | 0.38 | 0.00 | 85 | 1017.2 |
| 20260906044507 | 12 | 271 | 12.9 | 25.7 | 0.00 | 0.38 | 0.00 | 85 | 1016.9 |
| 20260906043104 | 12 | 275 | 11.3 | 20.9 | 0.00 | 0.38 | 0.00 | 85 | 1016.7 |
| 20260906041503 | 12 | 249 | 11.3 | 22.5 | 0.00 | 0.38 | 0.00 | 85 | 1016.5 |
| 20260906040104 | 13 | 290 | 14.5 | 22.5 | 0.00 | 0.38 | 0.00 | 84 | 1016.4 |
| 20260906034600 | 13 | 244 | 14.5 | 27.4 | 0.00 | 0.38 | 0.00 | 84 | 1016.4 |
| 20260906034502 | 13 | 272 | 17.7 | 27.4 | 0.00 | 0.38 | 0.00 | 84 | 1016.3 |
| 20260906033108 | 13 | 250 | 14.5 | 25.7 | 0.00 | 0.38 | 0.00 | 84 | 1016.1 |
| 20260906031611 | 13 | 274 | 16.1 | 29.0 | 0.00 | 0.38 | 0.00 | 84 | 1016.0 |
| 20260906030054 | 13 | 302 | 11.3 | 25.7 | 0.00 | 0.38 | 0.00 | 84 | 1015.8 |
| 20260906024600 | 13 | 299 | 16.1 | 25.7 | 0.00 | 0.38 | 0.00 | 84 | 1015.6 |
| 20260906023054 | 13 | 286 | 16.1 | 24.1 | 0.00 | 0.38 | 0.00 | 84 | 1015.4 |
| 20260906021544 | 13 | 277 | 16.1 | 30.6 | 0.00 | 0.38 | 0.00 | 84 | 1015.3 |
| 20260906020043 | 13 | 285 | 16.1 | 24.1 | 0.00 | 0.38 | 0.00 | 83 | 1015.2 |
| 20260906014539 | 13 | 271 | 17.7 | 33.8 | 0.00 | 0.38 | 0.00 | 83 | 1015.1 |
| 20260906013036 | 13 | 279 | 16.1 | 32.2 | 0.00 | 0.38 | 0.00 | 83 | 1014.8 |
| 20260906011534 | 13 | 275 | 14.5 | 27.4 | 0.00 | 0.38 | 0.00 | 83 | 1014.7 |
| 20260906010045 | 13 | 277 | 17.7 | 35.4 | 0.00 | 0.38 | 0.00 | 84 | 1014.7 |
| 20260906004531 | 13 | 279 | 16.1 | 27.4 | 0.00 | 0.41 | 0.00 | 83 | 1014.5 |
| 20260906003028 | 13 | 300 | 19.3 | 33.8 | 0.00 | 0.41 | 0.00 | 83 | 1014.4 |
| 20260906001533 | 13 | 285 | 16.1 | 32.2 | 0.00 | 0.41 | 0.00 | 83 | 1014.2 |
| 20260906000025 | 13 | 298 | 16.1 | 30.6 | 0.00 | 0.41 | 0.00 | 84 | 1014.1 |
| 20260905234522 | 13 | 290 | 16.1 | 30.6 | 0.00 | 0.41 | 0.00 | 83 | 1013.9 |
| 20260905233021 | 14 | 296 | 19.3 | 37.0 | 0.00 | 0.41 | 0.00 | 83 | 1013.7 |
| 20260905231520 | 14 | 308 | 22.5 | 38.6 | 0.00 | 0.41 | 0.00 | 82 | 1013.5 |
| 20260905230029 | 14 | 290 | 17.7 | 33.8 | 0.00 | 0.41 | 0.00 | 83 | 1013.3 |
| 20260905224518 | 14 | 235 | 17.7 | 35.4 | 0.00 | 0.41 | 0.00 | 83 | 1013.3 |
| 20260905223015 | 14 | 275 | 22.5 | 38.6 | 0.00 | 0.41 | 0.00 | 82 | 1013.0 |
| 20260905221507 | 14 | 276 | 22.5 | 33.8 | 0.00 | 0.41 | 0.00 | 82 | 1012.8 |
| 20260905220005 | 14 | 275 | 19.3 | 46.7 | 0.00 | 0.41 | 0.00 | 82 | 1012.6 |
| 20260905214502 | 14 | 284 | 20.9 | 37.0 | 0.00 | 0.41 | 0.41 | 82 | 1012.5 |
| 20260905213105 | 15 | 284 | 22.5 | 45.1 | 0.00 | 0.41 | 0.41 | 82 | 1012.4 |
| 20260905211610 | 15 | 299 | 19.3 | 45.1 | 0.00 | 0.41 | 0.41 | 82 | 1012.2 |
| 20260905211504 | 15 | 279 | 19.3 | 45.1 | 0.00 | 0.41 | 0.41 | 82 | 1012.1 |
| 20260905210105 | 15 | 261 | 17.7 | 45.1 | 0.00 | 0.41 | 0.41 | 82 | 1012.0 |
| 20260905204603 | 15 | 254 | 24.1 | 38.6 | 0.00 | 0.41 | 0.41 | 83 | 1011.8 |
| 20260905203101 | 15 | 288 | 19.3 | 37.0 | 0.00 | 0.41 | 0.41 | 84 | 1011.5 |
| 20260905201557 | 15 | 267 | 20.9 | 37.0 | 0.00 | 0.41 | 0.41 | 84 | 1011.4 |
| 20260905200110 | 15 | 277 | 16.1 | 45.1 | 0.00 | 0.41 | 0.41 | 83 | 1011.3 |
| 20260905194551 | 15 | 302 | 24.1 | 41.8 | 0.00 | 0.41 | 0.41 | 83 | 1011.3 |
| 20260905193052 | 15 | 279 | 20.9 | 38.6 | 0.00 | 0.41 | 0.41 | 81 | 1011.2 |
| 20260905191549 | 15 | 286 | 14.5 | 30.6 | 0.00 | 0.41 | 0.41 | 80 | 1011.2 |
| 20260905190047 | 15 | 274 | 19.3 | 40.2 | 0.00 | 0.41 | 0.41 | 80 | 1011.0 |
| 20260905184545 | 15 | 286 | 19.3 | 38.6 | 0.00 | 0.41 | 0.41 | 80 | 1010.9 |
| 20260905183045 | 15 | 287 | 19.3 | 38.6 | 0.00 | 0.41 | 0.41 | 80 | 1010.7 |
| 20260905181541 | 16 | 242 | 22.5 | 41.8 | 0.00 | 0.41 | 0.41 | 79 | 1010.4 |
| 20260905180040 | 16 | 252 | 22.5 | 40.2 | 0.00 | 0.41 | 0.41 | 79 | 1010.1 |
| 20260905174538 | 16 | 258 | 20.9 | 37.0 | 0.00 | 0.41 | 0.41 | 80 | 1010.0 |
| 20260905173054 | 16 | 277 | 20.9 | 41.8 | 0.00 | 0.41 | 0.41 | 78 | 1010.0 |
| 20260905171538 | 16 | 285 | 16.1 | 35.4 | 0.00 | 0.41 | 0.41 | 78 | 1009.7 |
| 20260905170034 | 16 | 281 | 20.9 | 40.2 | 0.00 | 0.41 | 0.41 | 76 | 1009.7 |
| 20260905164532 | 16 | 273 | 22.5 | 33.8 | 0.00 | 0.69 | 0.41 | 75 | 1009.5 |
| 20260905163031 | 17 | 259 | 17.7 | 45.1 | 0.00 | 0.69 | 0.41 | 74 | 1009.2 |
| 20260905161531 | 17 | 281 | 25.7 | 48.3 | 0.00 | 0.69 | 0.41 | 71 | 1009.0 |
| 20260905160033 | 18 | 300 | 22.5 | 48.3 | 0.00 | 0.69 | 0.41 | 69 | 1008.8 |
| 20260905154526 | 18 | 300 | 27.4 | 53.1 | 0.00 | 0.71 | 0.41 | 68 | 1008.6 |
| 20260905153024 | 18 | 281 | 27.4 | 53.1 | 0.00 | 0.71 | 0.41 | 68 | 1008.4 |
| 20260905151522 | 18 | 266 | 22.5 | 49.9 | 0.00 | 0.71 | 0.41 | 72 | 1008.2 |
| 20260905150022 | 18 | 278 | 27.4 | 48.3 | 0.00 | 0.71 | 0.41 | 71 | 1008.0 |
| 20260905144520 | 18 | 290 | 25.7 | 48.3 | 0.00 | 0.71 | 0.41 | 71 | 1008.0 |
| 20260905143022 | 17 | 287 | 16.1 | 40.2 | 0.00 | 0.71 | 0.41 | 73 | 1007.8 |
| 20260905141526 | 18 | 291 | 22.5 | 48.3 | 0.00 | 0.71 | 0.41 | 71 | 1007.9 |
| 20260905140015 | 18 | 292 | 24.1 | 41.8 | 0.00 | 0.71 | 0.41 | 72 | 1007.6 |
| 20260905134515 | 18 | 278 | 19.3 | 43.5 | 0.00 | 0.81 | 0.41 | 72 | 1007.6 |
| 20260905133014 | 17 | 250 | 29.0 | 49.9 | 0.00 | 0.81 | 0.41 | 73 | 1007.6 |
| 20260905131516 | 18 | 297 | 29.0 | 48.3 | 0.00 | 0.81 | 0.41 | 71 | 1007.3 |
| 20260905130011 | 17 | 290 | 25.7 | 41.8 | 0.00 | 0.81 | 0.41 | 72 | 1007.1 |
| 20260905124511 | 17 | 310 | 14.5 | 35.4 | 0.00 | 0.84 | 0.41 | 78 | 1007.0 |
| 20260905123007 | 17 | 270 | 19.3 | 32.2 | 0.00 | 0.84 | 0.41 | 81 | 1006.8 |
| 20260905121505 | 16 | 277 | 12.9 | 33.8 | 0.00 | 0.84 | 0.41 | 85 | 1006.6 |
| 20260905120007 | 16 | 188 | 9.7 | 32.2 | 0.05 | 0.84 | 0.41 | 83 | 1006.6 |
| 20260905114506 | 16 | 285 | 8.0 | 19.3 | 0.15 | 1.09 | 0.41 | 85 | 1006.5 |
| 20260905113003 | 15 | 215 | 8.0 | 22.5 | 0.15 | 1.09 | 0.41 | 89 | 1006.6 |
| 20260905111502 | 13 | 272 | 22.5 | 35.4 | 0.15 | 1.07 | 0.38 | 90 | 1006.8 |